User: anonymous   Login
Location: Ceske Budejovice
(48.9830°N, 14.4670°E)
Time: 20:37:24
(UTC+02:00)
Language:

MOZHAYETS 4 - Orbit

View from above orbital plane
View from above orbital plane
View from above satellite
View from above satellite

Ground track
Ground track

The orbit data is extracted from the following two-line orbital elements,

1 27939U 03042A   19200.54109472  .00000057  00000-0  18770-4 0  9992
2 27939  98.0451 335.7616 0012296 334.6202  25.4397 14.66791025845064
Epoch (UTC): 19 July 2019 12:59:10
Eccentricity: 0.0012296
inclination: 98.0451°
perigee height: 662 km
apogee height: 680 km
right ascension of ascending node: 335.7616°
argument of perigee: 334.6202°
revolutions per day: 14.66791025
mean anomaly at epoch: 25.4397°
orbit number at epoch: 84506

The dashed part of the orbit path shows where the satellite is in the earth's shadow,  

DLR